{"data":{"norad_id":64432,"epoch":"2026-09-20T12:38:20.778432Z","epoch_age_seconds":131874,"freshness":"FRESH","line1":"1 64432U 25129W   26263.52662938  .00013134  00000+0  46040-3 0  9996","line2":"2 64432  70.0007 300.7414 0003728 279.9378  80.1376 15.29586983 70478","mean_motion":15.295869830000001,"eccentricity":0.0003728,"inclination_deg":70.0007,"raan_deg":300.7414,"arg_perigee_deg":279.9378,"mean_anomaly_deg":80.1376,"bstar":0.0004604,"rev_number":7047,"period_min":94.143060578072,"perigee_km":474.49042671845,"apogee_km":479.60165119229,"semimajor_km":6855.1830389554,"source":"CELESTRAK","updated_at":"2026-09-21T09:00:35.350244Z"}}